California State Race - Toss 13

Station: 11th toss - T Race

Distance: 30.287 Miles    

Release: 10-Sep-2019 08:32

Weather Release:    Arrival: clear

Wind at Release: calm     Wind at Arrival: calm

Temp at Release: 67°    Temp at Arrival: 69°

Lofts: 81

Birds: 150

Clocked: 153

Good Luck to Everyone!
Drops Pos Breeder Pigeon Name Color Sex Ent Arrival Speed To Win Elg Pd
1 Robert Lin - CA 19119-AU19-SVS BB H 1 13:38:16.20 174.045 00:00:00 Yes
2 Dan Severns - CA 80736-AU19-MAN BB H 1 16:23:46.60 112.987 02:45:30 Yes
3 Bob Bostwick - CA 0933-AU19-COCO BBWF H 1 16:42:14.30 108.732 03:03:58 Missing
4 Bob Bostwick - CA 0923-AU19-COCO BC C 2 2019-09-11 08:22:36.90 66.134 08:19:45 Missing
5 Prout's Loft - CA 12577-AU19-ARPU BB H 1 2019-09-11 08:23:35.30 66.054 08:20:43 Missing
6 Dino D'ercole - CA 0507-AU19-SFR BB C 1 2019-09-11 08:23:39.60 66.048 08:20:47 Yes
6 Fred Belus - CA 0249-AU19-BPRC BC H 1 2019-09-11 08:23:39.60 66.048 08:20:47 Yes
8 Hayloft - CA 9345-AU19-GSF BB C 1 2019-09-11 08:23:40.10 66.047 08:20:48 Yes
8 Denis Eastwood - CA 0127-AU19-HANG BB H 1 2019-09-11 08:23:40.40 66.047 08:20:48 Yes
10 Jim Looper - CA 1039-AU19-LOOP BB C 1 2019-09-11 08:23:40.90 66.046 08:20:49 Yes
11 Barbara Shulman - CA 2555-AU19-WSJ BB C 1 2019-09-11 08:23:41.60 66.045 08:20:50 Yes
12 Master One - CA 9225-AU19-COOK LTCK H 1 2019-09-11 08:23:46.00 66.039 08:20:54 Yes
13 Fred Belus - CA 0250-AU19-BPRC BC C 2 2019-09-11 08:23:48.30 66.036 08:20:56 Missing
14 Andrew Broster - CA 3744-AU19-ARC BB H 1 2019-09-11 08:23:50.00 66.034 08:20:58 Yes
15 Wessel Family Lofts - CA 3029-AU19-ARC BB H 1 2019-09-11 08:23:51.40 66.032 08:20:59 Yes
16 Frank Meder - CA 19040-AU19-TBW BCWF C 1 2019-09-11 08:23:57.20 66.024 08:21:05 Yes
17 Padilla - CA 0728-AU19-SFPC BB H 1 2019-09-11 08:24:04.90 66.014 08:21:12 Yes
18 Robert Justman - CA 90038-AU19-SOC BC C 1 2019-09-11 08:24:06.20 66.012 08:21:14 Yes
19 Jim Vander Heide - CA 0129-AU19-OCF BC C 1 2019-09-11 08:24:07.50 66.010 08:21:15 Yes
20 Joyce Stierlin - CA 19256-AU19-A BBSP H 1 2019-09-11 08:24:08.70 66.008 08:21:17 Yes
21 Pat Siino - CA 9248-AU19-COOK BC C 1 2019-09-11 08:24:11.50 66.005 08:21:19 Yes
22 Hayloft - CA 9272-AU19-GSF BC C 2 2019-09-11 08:24:12.00 66.004 08:21:20 Yes
23 Bieche & Lee - CA 9329-AU19-BIEC DC C 1 2019-09-11 08:24:14.20 66.001 08:21:22 Yes
23 Partridge Family Loft - CA 1763-AU19-PASO BB C 1 2019-09-11 08:24:14.20 66.001 08:21:22 Missing
25 Dino D'ercole - CA 0506-AU19-SFR BB H 2 2019-09-11 08:24:15.60 65.999 08:21:23 Yes
26 Sal Perez - CA 14062-AU19-AA BC H 1 2019-09-11 08:24:16.40 65.998 08:21:24 Yes
26 Mihaela Chelaru - CA 0109-AU19-BPRC BC H 1 2019-09-11 08:24:16.40 65.998 08:21:24 Yes
28 Silicon Valley Syndicates - CA 19079-AU19-SVS BBWF H 1 2019-09-11 08:24:18.40 65.995 08:21:26 Yes
29 Jim Edgeworth - CA 2739-AU19-ARPU BB C 1 2019-09-11 08:24:19.50 65.994 08:21:27 Yes
30 Ted Little - CA 2652-AU19-ARPU BCWF H 1 2019-09-11 08:24:20.70 65.992 08:21:29 Yes
31 Hayloft - CA 9347-AU19-GSF BB C 3 2019-09-11 08:24:22.20 65.990 08:21:30 Yes
32 Dan Severns - CA 80741-AU19-MAN BC H 2 2019-09-11 08:24:24.50 65.987 08:21:32 Yes
32 Osty Loft - CA 4583-AU19-JEDD BB C 1 2019-09-11 08:24:24.60 65.987 08:21:32 Yes
34 Marco Parra - CA 1004-AU19-TULE RCPD 0 1 2019-09-11 08:24:25.80 65.985 08:21:34 Yes
35 Fernando Gonzalez - CA 1959-AU19-MTZ BC C 1 2019-09-11 08:24:31.30 65.978 08:21:39 Yes
36 Silicon Valley Syndicates - CA 19075-AU19-SVS BB C 2 2019-09-11 08:24:32.50 65.976 08:21:40 Yes
37 Trina Dewitt - CA 1827-AU19-PASO DC C 1 2019-09-11 08:24:33.10 65.975 08:21:41 Yes
37 Duane Gragg - CA 0933-AU19-KEY BB H 1 2019-09-11 08:24:33.60 65.975 08:21:41 Yes
39 Gold Star Loft - CA 1649-AU19-STON BB C 1 2019-09-11 08:24:34.20 65.974 08:21:42 Yes
40 Wessel Family Lofts - CA 3027-AU19-ARC BB H 2 2019-09-11 08:24:37.50 65.969 08:21:45 Yes
41 Zack Jones - CA 1956-AU19-MTZ BC H 1 2019-09-11 08:24:38.20 65.968 08:21:46 Yes
41 Sam Ochoa - CA 39675-AU19-AA BB 1 1 2019-09-11 08:24:38.20 65.968 08:21:46 Missing
43 Robert Justman - CA 90045-AU19-SOC BBPD H 2 2019-09-11 08:24:39.50 65.967 08:21:47 Missing
44 Robert Lin - CA 19064-AU19-SVS BCWF C 2 2019-09-11 08:24:40.50 65.965 08:21:48 Yes
45 Christian Gluck - CA 0779-AU19-SD BC H 1 2019-09-11 08:24:42.90 65.962 08:21:51 Yes
46 Humberto Saenz - CA 9057-AU19-CGR BB H 1 2019-09-11 08:24:43.50 65.961 08:21:51 Yes
47 Hayloft - CA 9304-AU19-GSF BC C 4 2019-09-11 08:24:49.20 65.953 08:21:57 Yes
47 Perez-Lafauci - CA 0084-AU19-SFR BC C 1 2019-09-11 08:24:49.60 65.953 08:21:57 Yes
49 Laszlo Zugor - CA 5304-AU19-SRP BC H 1 2019-09-11 08:24:56.00 65.944 08:22:04 Yes
50 John Partridge - CA 1648-AU19-PASO BC H 1 2019-09-11 08:25:24.60 65.905 08:22:33 Yes
51 Mike Belus - CA 0718-AU19-BPRC BC 1 1 2019-09-11 08:31:23.00 65.422 08:28:31 Missing
52 Roger Revenaugh - CA 1393-AU19-MTZ BB H 1 2019-09-11 08:31:28.30 65.415 08:28:36 Yes
53 Hayloft - CA 9262-AU19-GSF RC C 5 2019-09-11 08:31:29.60 65.413 08:28:38 Yes
54 Frank Meder - CA 19044-AU19-TBW MLY H 2 2019-09-11 08:31:30.60 65.412 08:28:38 Yes
55 Carl Cardarelli - CA 0201-AU19-ANCO BCWF C 1 2019-09-11 08:31:33.90 65.407 08:28:42 Missing
56 Vidal Gonzalez - CA 0300-AU19-SMR RGRZ H 1 2019-09-11 08:31:35.50 65.405 08:28:44 Missing
56 Jim Vander Heide - CA 0131-AU19-OCF BCTK H 2 2019-09-11 08:31:36.00 65.405 08:28:44 Yes
58 Armando Lopez - CA 1246-AU19-CHP BC C 1 2019-09-11 08:31:39.40 65.400 08:28:47 Yes
58 Roger Revenaugh - CA 1332-AU19-MTZ BC H 2 2019-09-11 08:31:39.80 65.400 08:28:47 Yes
60 De Vriend Lofts - CA 5739-AU19-FSC BC H 1 2019-09-11 08:31:41.00 65.398 08:28:49 Yes
61 Jim Cain - CA 6516-AU19-FSC BB H 1 2019-09-11 08:31:42.40 65.396 08:28:50 Yes
62 Hayloft - CA 9355-AU19-GSF BC H 6 2019-09-11 08:31:44.30 65.394 08:28:52 Yes
63 Gomez Loft - CA 1098-AU19-CHP BBTK H 1 2019-09-11 08:31:50.00 65.386 08:28:58 Missing
64 Jim Herbaugh - CA 3000-AU19-ARPU BB C 1 2019-09-11 08:31:52.60 65.382 08:29:01 Yes
65 Richard Norgrove - CA 90875-AU19-SOC BC C 1 2019-09-11 08:31:54.20 65.380 08:29:02 Yes
66 John Partridge - CA 1642-AU19-PASO BB C 2 2019-09-11 08:31:57.80 65.376 08:29:05 Missing
67 Master One - CA 9228-AU19-COOK BB H 2 2019-09-11 08:31:58.30 65.375 08:29:06 Yes
68 Mike Gonigan - CA 80305-AU19-MAN BB H 1 2019-09-11 08:32:00.30 65.372 08:29:08 Yes
69 Hayloft - CA 9339-AU19-GSF BC C 7 2019-09-11 08:32:00.90 65.371 08:29:09 Yes
70 Mihaela Chelaru - CA 0104-AU19-BPRC SIL C 2 2019-09-11 08:32:02.30 65.370 08:29:10 Yes
71 Franco's Classic - CA 0341-AU19-BPRC BB 1 1 2019-09-11 08:32:04.40 65.367 08:29:12 Missing
72 Andrew Broster - CA 3740-AU19-ARC BB H 2 2019-09-11 08:32:06.00 65.365 08:29:13 Yes
73 C.J. Watkins - CA 1826-AU19-PASO DC H 1 2019-09-11 08:32:06.80 65.364 08:29:14 Yes
74 Robert Lin - CA 19078-AU19-SVS DC H 3 2019-09-11 08:32:07.70 65.362 08:29:16 Yes
75 Grover Todd - CA 5004-AU19-FSC BB C 1 2019-09-11 08:32:08.70 65.361 08:29:16 Yes
76 Al Shulman - CA 2551-AU19-WSJ RC C 1 2019-09-11 08:32:11.10 65.358 08:29:19 Yes
77 Jenkins Racing - CA 0760-AU19-JENK BC C 1 2019-09-11 08:32:11.80 65.357 08:29:19 Yes
77 Duane Gragg - CA 0997-AU19-KEY BC H 2 2019-09-11 08:32:11.80 65.357 08:29:19 Yes
79 Sal Perez - CA 0088-AU19-SFR BCWF H 2 2019-09-11 08:32:13.40 65.355 08:29:21 Yes
80 Gold Star Loft - CA 1671-AU19-STON BB H 2 2019-09-11 08:32:18.20 65.348 08:29:26 Yes
81 Partridge Family Loft - CA 1741-AU19-PASO BC H 2 2019-09-11 08:32:21.00 65.345 08:29:28 Missing
82 Stanton Woody - CA 80510-AU19-MAN BB H 1 2019-09-11 08:32:26.90 65.337 08:29:34 Yes
83 Robert Lin - CA 19084-AU19-SVS DCPD H 4 2019-09-11 08:32:29.00 65.334 08:29:37 Yes
84 C.J. Watkins - CA 1836-AU19-PASO BB C 2 2019-09-11 08:32:38.30 65.321 08:29:46 Yes
85 Sal Perez - CA 0086-AU19-SFR DC H 3 2019-09-11 08:32:49.60 65.306 08:29:58 Yes
86 Hayloft - CA 9265-AU19-GSF BB C 8 2019-09-11 08:32:51.90 65.303 08:30:00 Yes
86 Armando Lopez - CA 1300-AU19-CHP BCWF H 2 2019-09-11 08:32:52.40 65.303 08:30:00 Yes
88 Sal Perez - CA 0064-AU19-SFR BC C 4 2019-09-11 08:32:55.60 65.298 08:30:04 Yes
89 Jim Vander Heide - CA 0123-AU19-OCF DCSP H 3 2019-09-11 08:33:05.90 65.285 08:30:13 Yes
90 Padilla - CA 0729-AU19-SFPC BB C 2 2019-09-11 08:33:09.10 65.280 08:30:17 Yes
91 De Vriend Lofts - CA 5773-AU19-FSC BC H 2 2019-09-11 08:33:16.00 65.271 08:30:24 Yes
92 Lopez/Saenz - CA 1305-AU19-TCH BB H 1 2019-09-11 08:33:21.10 65.264 08:30:29 Yes
93 Steve Sterchi - CA 1919-AU19-SR BB H 1 2019-09-11 08:33:27.60 65.256 08:30:35 Yes
94 Jeff Decker - CA 1923-AU19-JTD BB 1 1 2019-09-11 08:33:33.80 65.248 08:30:41 Yes
95 Darryl Coston - CA 1840-AU19-ARPU BB H 1 2019-09-11 08:35:03.70 65.128 08:32:12 Missing
96 Bieche & Lee - CA 9331-AU19-BIEC BC H 2 2019-09-11 08:35:12.40 65.117 08:32:20 Yes
97 Hayloft - CA 9258-AU19-GSF BCPD H 9 2019-09-11 08:35:34.30 65.087 08:32:42 Yes
98 Minerva Fernandez - CA 9229-AU19-COOK BB H 1 2019-09-11 08:35:53.10 65.063 08:33:01 Yes
99 Chelaru Family Loft - CA 0103-AU19-BPRC SIL H 1 2019-09-11 08:36:06.20 65.045 08:33:14 Missing
100 Lopez/Saenz - CA 9092-AU19-CGR BB C 2 2019-09-11 08:36:17.80 65.030 08:33:26 Yes

There are 136 bird records

Note: These Race Results are unofficial and subject to change until verified by the Race Committee and declared final.